Regional Weather Roundup
Issued by NWS

Home | Current Version | Previous Version | Graphics & Text | Print | Product List | Glossary On
Versions: 1 2 3 4 5 6 7 8 9 10 11 12 13 14 15 16 17 18 19 20 21 22 23 24 25 26 27 28 29 30 31 32 33 34 35 36 37 38 39 40 41 42 43 44 45 46 47 48 49 50
000
ASUS43 KTOP 290108
RWRKS

WEATHER ROUNDUP FOR KANSAS
NATIONAL WEATHER SERVICE GOODLAND KS
800 PM CDT THU MAY 28 2015

NOTE:  "FAIR" INDICATES FEW OR NO CLOUDS BELOW 12,000 FEET WITH NO
SIGNIFICANT WEATHER AND/OR OBSTRUCTIONS TO VISIBILITY.

KSZ001>006-013>018-027>032-041>047-290200-
NORTHWEST KANSAS

CITY           SKY/WX    TMP DP  RH WIND       PRES   REMARKS
GOODLAND       CLOUDY    59  51  75 N8        30.02R
HAYS           CLOUDY    59  52  77 NW28G39   29.95R THUNDER
HILL CITY      LGT RAIN  62  55  77 SW17G26   29.97R
RUSSELL        CLOUDY    72  66  81 S9        29.90R
$$

KSZ061>065-074>080-084>089-290200-
SOUTHWEST KANSAS

CITY           SKY/WX    TMP DP  RH WIND       PRES   REMARKS
DODGE CITY     CLOUDY    62  53  72 N14G29    29.98R
ELKHART          N/A     61  46  57 E29         N/A
GARDEN CITY    LGT RAIN  59  57  93 NE12      29.92F
GREAT BEND     MOCLDY    73  64  73 SE9       29.90F
LIBERAL        MOCLDY    68  50  52 SW14G23   29.98R
PRATT          MOCLDY    73  61  64 S12       29.93F
$$

KSZ066>073-081>083-090>101-290200-
SOUTHEAST KANSAS

CITY           SKY/WX    TMP DP  RH WIND       PRES   REMARKS
CHANUTE        PTCLDY    71  66  84 S5        29.94S
COFFEYVILLE    PTCLDY    72  67  84 S5        29.93S
HUTCHINSON     CLOUDY    76  63  64 S9        29.91S
MEDICINE LODGE   N/A     77  65  66 SE6       29.91R
NEWTON         MOCLDY    73  63  68 S6        29.95F
PARSONS        PTCLDY    73  67  81 S5        29.95S
WICHITA INTL   MOCLDY    77  65  66 SE9       29.91S
WICHITA JABRA  MOCLDY    74  64  71 S7        29.92S
WICHITA MCCONL MOCLDY    76  65  70 SE8       29.92S
WINFIELD       MOCLDY    75  67  76 E6        29.91F
$$

KSZ007>012-019>026-033>040-048>060-102>105-290200-
NORTHEAST KANSAS

CITY           SKY/WX    TMP DP  RH WIND       PRES   REMARKS
CONCORDIA      CLOUDY    72  63  73 S7        29.92R
EMPORIA        CLEAR     72  64  76 SE7       29.94R
LAWRENCE       CLEAR     71  63  75 SE10      29.96R
MANHATTAN      CLEAR     76  64  66 S7        29.93R
MARYSVILLE     PTCLDY    72  64  78 SE6       29.92S
OLATHE IND     PTCLDY    70  63  78 SE8       29.98S
OLATHE EXE     MOCLDY    69  63  81 SE6       29.96S
SALINA         MOCLDY    75  64  68 S9        29.92R
TOPEKA BILLARD CLEAR     73  64  73 SE6       29.96R
TOPEKA FORBES  PTCLDY    74  64  71 SE8       29.96R
$$


USA.gov is the U.S. government's official web portal to all federal, state and local government web resources and services.